STARLINK-1999 (47594 NORAD) Tracking and Keplerian Element Data
This shows tracking and keplerian element data for the satellite.
Feedback or suggestion? Click here.
Element | Value |
Catalog | 47594 |
Name | STARLINK-1999 |
Epoch Orbit | 176 |
Epoch Day | 59.91667824 |
Epoch Year | 2021 |
RAAN | 3.0066 |
Inclination | 53.0544 |
Eccentricity | 0.0001186 |
Argument of Perigee | 61.7882 |
Mean Anonmoly | 244.9468 |
Mean Motion | 15.57864795 |
Decay Rate | -0.0094745 |
L1 | 1 47594U 21009AY 21059.91667824 -.00947450 00000-0 -13784-1 0 9996 |
L2 | 2 47594 53.0544 3.0066 0001186 61.7882 244.9468 15.57864795 1763 |
Live tracking and technical data element details for STARLINK-1999 (NORAD 47594). STARLINK-1999 can be tracked NOW for your location showing map with azimuth and elevation plus other details from your city location.
Track the satellite on the map from your city or location and see movement details for azimuth, elevation, latitude, longitude, range, height, and movement on the map or in text.
IsCatalogInMostPopularTable: catalog: 47594, numindb: 3
Update: records affected: 1
GetName: 47594 STARLINK-1999
Hit Count: updated at: Mon, 01 Mar 2021 16:02:06 GMT